DW4779 Weather Reports


Display with metric or nautical units.
time (UTC)temp
F
wind
direction
speed
MPH
gust
MPH
rain 1hr
in
rain 24hr
in
rain mn
in
humidity
%
barometer
mb
20260504081550 50 190 3.0 11.0 0.00 0.00 0.00 50 1015.1
20260504044559 58 190 3.0 12.0 0.00 0.00 0.00 36 1009.3
20260504043055 58 190 2.0 5.0 0.00 0.00 0.00 36 1008.8
20260504041549 59 190 2.0 7.0 0.00 0.00 0.00 34 1008.6
20260504040058 59 190 2.0 6.0 0.00 0.00 0.00 34 1008.1
20260504034609 60 44 2.0 5.0 0.00 0.00 0.00 33 1007.7
20260504033043 61 45 3.0 8.0 0.00 0.00 0.00 32 1007.5
20260504031544 61 44 3.0 7.0 0.00 0.00 0.00 31 1007.2
20260504030048 62 190 2.0 3.0 0.00 0.00 0.00 27 1006.9
20260504024538 63 190 1.0 3.0 0.00 0.00 0.00 23 1006.8
20260504023039 65 190 1.0 3.0 0.00 0.00 0.00 22 1006.7
20260504021550 67 0 0.0 4.0 0.00 0.00 0.00 20 1006.7
20260504020043 69 190 2.0 6.0 0.00 0.00 0.00 19 1006.8
20260504014543 71 190 1.0 4.0 0.00 0.00 0.00 19 1006.7
20260504013049 72 190 2.0 6.0 0.00 0.00 0.00 18 1006.6
20260504011548 73 190 2.0 5.0 0.00 0.00 0.00 18 1006.7
20260504010052 74 190 3.0 8.0 0.00 0.00 0.00 18 1006.7
20260504004546 74 190 2.0 9.0 0.00 0.00 0.00 17 1006.7
20260504003048 75 190 2.0 10.0 0.00 0.00 0.00 17 1006.9
20260504001600 75 190 3.0 14.0 0.00 0.00 0.00 17 1006.9
20260504000039 75 190 8.0 19.0 0.00 0.00 0.00 16 1007.2
20260503234549 75 190 5.0 13.0 0.00 0.00 0.00 16 1007.2
20260503233045 75 190 10.0 17.0 0.00 0.00 0.00 15 1007.3
20260503231548 75 224 7.0 16.0 0.00 0.00 0.00 16 1007.3
20260503230043 75 190 6.0 15.0 0.00 0.00 0.00 17 1007.5
20260503224541 75 190 6.0 17.0 0.00 0.00 0.00 16 1007.7
20260503223048 75 190 10.0 16.0 0.00 0.00 0.00 16 1007.9
20260503221547 75 224 4.0 17.0 0.00 0.00 0.00 16 1008.1
20260503220049 74 190 5.0 17.0 0.00 0.00 0.00 17 1008.3
20260503214547 75 190 8.0 16.0 0.00 0.00 0.00 16 1008.3
20260503213046 75 224 3.0 10.0 0.00 0.00 0.00 16 1008.6
20260503211548 74 199 6.0 15.0 0.00 0.00 0.00 16 1008.9
20260503210039 74 224 1.0 16.0 0.00 0.00 0.00 16 1009.0
20260503204555 74 190 6.0 14.0 0.00 0.00 0.00 16 1009.2
20260503203049 74 224 2.0 12.0 0.00 0.00 0.00 16 1009.4
20260503201547 74 224 5.0 17.0 0.00 0.00 0.00 16 1009.6
20260503200042 74 224 2.0 13.0 0.00 0.00 0.00 15 1009.7
20260503194545 74 224 3.0 16.0 0.00 0.00 0.00 16 1009.9
20260503193049 74 190 4.0 12.0 0.00 0.00 0.00 16 1010.0
20260503191538 73 224 3.0 13.0 0.00 0.00 0.00 18 1010.3
20260503190049 73 190 3.0 18.0 0.00 0.00 0.00 18 1010.5
20260503184547 73 190 3.0 17.0 0.00 0.00 0.00 19 1010.7
20260503183055 73 224 4.0 9.0 0.00 0.00 0.00 20 1011.0
20260503181552 72 190 2.0 10.0 0.00 0.00 0.00 22 1011.3
20260503180056 71 224 4.0 14.0 0.00 0.00 0.00 23 1011.7
20260503174550 70 224 2.0 13.0 0.00 0.00 0.00 24 1011.7
20260503173104 69 224 1.0 9.0 0.00 0.00 0.00 26 1012.0
20260503171550 69 190 1.0 8.0 0.00 0.00 0.00 28 1012.0